Archiv-/Tagesdaten

--Timestamp---	Temp	Chill	HIndex	Humid	Dewpt	 Wind 	HiWind	WindDir	Rain 	Barom	Solar	 ET  	 UV 
--------------	----	-----	------	-----	-----	------	------	-------	-----	-----	-----	-----	----
20110216 00:00	-1.0	-1.0	-1.0	92	-2.1	2	3	68	0.0	1003.8	0	0.000	0.0
20110216 00:05	-1.0	-1.0	-1.0	92	-2.1	0	2	68	0.0	1003.8	0	0.000	0.0
20110216 00:10	-0.9	-0.9	-0.9	92	-2.1	0	2	68	0.0	1003.9	-100000	0.000	0.0
20110216 00:15	-0.9	-0.9	-0.9	92	-2.1	0	3	68	0.0	1003.9	0	0.000	0.0
20110216 00:20	-1.0	-1.0	-1.0	92	-2.1	2	5	68	0.0	1004.2	0	0.000	0.0
20110216 00:25	-1.0	-1.0	-1.0	93	-2.0	2	5	68	0.0	1004.1	0	0.000	0.0
20110216 00:30	-0.9	-0.9	-0.9	93	-1.9	0	0	-100000	0.0	1004.1	0	0.000	0.0
20110216 00:35	-1.0	-1.0	-1.0	93	-2.0	0	2	68	0.0	1004.2	0	0.000	0.0
20110216 00:40	-0.9	-0.9	-0.9	93	-1.9	0	0	-100000	0.0	1004.2	0	0.000	0.0
20110216 00:45	-0.9	-0.9	-0.9	93	-1.9	2	5	68	0.0	1004.2	0	0.000	0.0
20110216 00:50	-0.9	-0.9	-0.9	93	-1.9	0	3	68	0.0	1004.2	0	0.000	0.0
20110216 00:55	-0.9	-0.9	-0.9	93	-1.9	0	3	68	0.0	1004.3	0	0.000	0.0
20110216 01:00	-0.9	-0.9	-0.9	93	-1.9	2	5	68	0.0	1004.2	0	0.000	0.0
20110216 01:05	-0.9	-0.9	-0.9	93	-1.9	0	2	68	0.0	1004.1	0	0.000	0.0
20110216 01:10	-0.9	-0.9	-0.9	93	-1.9	2	3	68	0.0	1004.1	0	0.000	0.0
20110216 01:15	-0.9	-0.9	-0.9	93	-1.9	2	5	68	0.0	1004.1	0	0.000	0.0
20110216 01:20	-0.9	-0.9	-0.9	93	-1.9	0	3	68	0.0	1004.1	0	0.000	0.0
20110216 01:25	-0.9	-0.9	-0.9	93	-1.9	0	0	-100000	0.0	1004.1	0	0.000	0.0
20110216 01:30	-0.9	-0.9	-0.9	93	-1.9	0	3	68	0.0	1004.1	0	0.000	0.0
20110216 01:35	-0.9	-0.9	-0.9	93	-1.9	0	2	68	0.0	1004.2	0	0.000	0.0
20110216 01:40	-0.9	-0.9	-0.9	93	-1.9	0	2	68	0.0	1004.2	0	0.000	0.0
20110216 01:45	-0.9	-0.9	-0.9	93	-1.9	0	2	68	0.0	1004.3	0	0.000	0.0
20110216 01:50	-0.8	-0.8	-0.8	93	-1.8	0	3	68	0.0	1004.3	0	0.000	0.0
20110216 01:55	-0.8	-0.8	-0.8	93	-1.8	0	2	68	0.0	1004.3	0	0.000	0.0
20110216 02:00	-0.8	-0.8	-0.8	93	-1.8	0	5	68	0.0	1004.4	0	0.000	0.0
20110216 02:05	-0.8	-0.8	-0.8	93	-1.8	2	5	68	0.0	1004.4	0	0.000	0.0
20110216 02:10	-0.8	-0.8	-0.8	93	-1.8	2	5	68	0.0	1004.3	0	0.000	0.0
20110216 02:15	-0.8	-0.8	-0.8	93	-1.8	2	5	68	0.0	1004.3	0	0.000	0.0
20110216 02:20	-0.8	-0.8	-0.8	93	-1.8	3	5	68	0.0	1004.3	0	0.000	0.0
20110216 02:25	-0.8	-0.8	-0.8	93	-1.8	3	8	68	0.0	1004.3	0	0.000	0.0
20110216 02:30	-0.8	-0.8	-0.8	93	-1.8	5	6	90	0.0	1004.3	0	0.000	0.0
20110216 02:35	-0.9	-0.9	-0.9	93	-1.9	3	5	112	0.0	1004.2	0	0.000	0.0
20110216 02:40	-0.8	-0.8	-0.8	93	-1.8	2	5	112	0.0	1004.1	0	0.000	0.0
20110216 02:45	-0.8	-0.8	-0.8	93	-1.8	3	6	112	0.0	1004.1	0	0.000	0.0
20110216 02:50	-0.8	-0.8	-0.8	93	-1.8	5	8	112	0.0	1004.1	0	0.000	0.0
20110216 02:55	-0.8	-0.8	-0.8	93	-1.8	5	8	135	0.0	1004.1	0	0.000	0.0
20110216 03:00	-0.8	-0.8	-0.8	93	-1.8	5	8	135	0.0	1004.1	0	0.000	0.0
20110216 03:05	-0.8	-0.8	-0.8	93	-1.8	5	8	135	0.0	1004.1	0	0.000	0.0
20110216 03:10	-0.8	-0.8	-0.8	93	-1.8	3	8	135	0.0	1004.1	0	0.000	0.0
20110216 03:15	-0.8	-0.8	-0.8	93	-1.8	3	6	135	0.0	1004.1	0	0.000	0.0
20110216 03:20	-0.8	-0.8	-0.8	93	-1.8	3	5	135	0.0	1004.0	0	0.000	0.0
20110216 03:25	-0.8	-0.8	-0.8	93	-1.8	3	6	135	0.0	1004.0	0	0.000	0.0
20110216 03:30	-0.8	-0.8	-0.8	93	-1.8	3	8	135	0.0	1003.9	0	0.000	0.0
20110216 03:35	-0.8	-0.8	-0.8	93	-1.8	3	6	135	0.0	1003.9	0	0.000	0.0
20110216 03:40	-0.8	-0.8	-0.8	93	-1.8	5	8	135	0.0	1003.9	0	0.000	0.0
20110216 03:45	-0.8	-0.8	-0.8	93	-1.8	5	6	135	0.0	1003.9	0	0.000	0.0
20110216 03:50	-0.7	-0.7	-0.7	94	-1.6	5	10	135	0.0	1004.0	0	0.000	0.0
20110216 03:55	-0.7	-3.0	-0.7	94	-1.6	6	8	158	0.0	1003.9	0	0.000	0.0
20110216 04:00	-0.8	-0.8	-0.8	94	-1.6	5	10	158	0.0	1003.8	0	0.000	0.0
20110216 04:05	-0.7	-0.7	-0.7	94	-1.6	3	8	158	0.0	1003.8	0	0.000	0.0
20110216 04:10	-0.7	-0.7	-0.7	94	-1.6	5	8	158	0.0	1003.7	0	0.000	0.0
20110216 04:15	-0.7	-0.7	-0.7	94	-1.5	5	10	135	0.0	1003.7	-100000	0.000	0.0
20110216 04:20	-0.7	-0.7	-0.7	94	-1.5	5	10	135	0.0	1003.7	0	0.000	0.0
20110216 04:25	-0.7	-0.7	-0.7	94	-1.5	3	6	135	0.0	1003.6	0	0.000	0.0
20110216 04:30	-0.7	-0.7	-0.7	94	-1.5	3	6	135	0.0	1003.7	0	0.000	0.0
20110216 04:35	-0.7	-0.7	-0.7	94	-1.6	5	6	135	0.0	1003.7	0	0.000	0.0
20110216 04:40	-0.7	-0.7	-0.7	94	-1.6	5	8	135	0.0	1003.6	0	0.000	0.0
20110216 04:45	-0.7	-3.0	-0.7	94	-1.6	6	10	135	0.0	1003.6	0	0.000	0.0
20110216 04:50	-0.7	-3.0	-0.7	94	-1.6	6	11	135	0.0	1003.6	0	0.000	0.0
20110216 04:55	-0.8	-3.6	-0.8	94	-1.6	8	11	112	0.0	1003.5	0	0.000	0.0
20110216 05:00	-0.8	-3.6	-0.8	94	-1.6	8	11	135	0.0	1003.5	0	0.000	0.0
20110216 05:05	-0.7	-3.6	-0.7	94	-1.6	8	11	112	0.0	1003.5	0	0.000	0.0
20110216 05:10	-0.7	-3.0	-0.7	94	-1.6	6	10	135	0.0	1003.4	0	0.000	0.0
20110216 05:15	-0.8	-3.6	-0.8	94	-1.6	8	11	135	0.0	1003.5	0	0.000	0.0
20110216 05:20	-0.8	-0.8	-0.8	94	-1.6	5	10	135	0.0	1003.4	0	0.000	0.0
20110216 05:25	-0.8	-0.8	-0.8	94	-1.6	5	8	135	0.0	1003.5	0	0.000	0.0
20110216 05:30	-0.7	-0.7	-0.7	94	-1.6	5	10	112	0.0	1003.4	0	0.000	0.0
20110216 05:35	-0.8	-3.1	-0.8	94	-1.6	6	11	135	0.0	1003.3	0	0.000	0.0
20110216 05:40	-0.7	-0.7	-0.7	94	-1.6	5	14	135	0.0	1003.4	0	0.000	0.0
20110216 05:45	-0.8	-3.1	-0.8	94	-1.6	6	10	135	0.0	1003.5	0	0.000	0.0
20110216 05:50	-0.8	-0.8	-0.8	94	-1.6	5	8	135	0.0	1003.3	0	0.000	0.0
20110216 05:55	-0.8	-0.8	-0.8	94	-1.6	5	8	135	0.0	1003.4	0	0.000	0.0
20110216 06:00	-0.8	-0.8	-0.8	94	-1.6	3	6	135	0.0	1003.3	0	0.000	0.0
20110216 06:05	-0.8	-0.8	-0.8	94	-1.6	5	6	135	0.0	1003.2	0	0.000	0.0
20110216 06:10	-0.8	-0.8	-0.8	94	-1.6	5	8	135	0.0	1003.3	0	0.000	0.0
20110216 06:15	-0.8	-0.8	-0.8	94	-1.6	5	8	135	0.0	1003.3	0	0.000	0.0
20110216 06:20	-0.7	-3.0	-0.7	94	-1.6	6	11	135	0.0	1003.3	0	0.000	0.0
20110216 06:25	-0.8	-3.1	-0.8	94	-1.6	6	11	135	0.0	1003.3	0	0.000	0.0
20110216 06:30	-0.8	-3.1	-0.8	94	-1.6	6	10	135	0.0	1003.2	0	0.000	0.0
20110216 06:35	-0.8	-0.8	-0.8	94	-1.6	5	10	135	0.0	1003.1	0	0.000	0.0
20110216 06:40	-0.8	-0.8	-0.8	94	-1.6	5	10	135	0.0	1003.0	0	0.000	0.0
20110216 06:45	-0.8	-0.8	-0.8	94	-1.7	5	10	112	0.0	1003.0	0	0.000	0.0
20110216 06:50	-0.8	-0.8	-0.8	94	-1.7	5	10	90	0.0	1003.0	0	0.000	0.0
20110216 06:55	-0.8	-0.8	-0.8	94	-1.7	3	10	135	0.0	1003.0	0	0.000	0.0
20110216 07:00	-0.9	-0.9	-0.9	94	-1.7	3	8	135	0.0	1003.3	0	0.000	0.0
20110216 07:05	-0.9	-0.9	-0.9	94	-1.7	5	8	135	0.0	1003.3	0	0.000	0.0
20110216 07:10	-0.9	-3.2	-0.9	94	-1.7	6	10	135	0.0	1003.4	0	0.000	0.0
20110216 07:15	-0.9	-3.2	-0.9	94	-1.7	6	10	135	0.0	1003.5	0	0.000	0.0
20110216 07:20	-0.9	-0.9	-0.9	94	-1.7	5	8	135	0.0	1003.5	0	0.000	0.0
20110216 07:25	-0.9	-3.2	-0.9	94	-1.7	6	14	112	0.0	1003.4	0	0.000	0.0
20110216 07:30	-0.9	-3.8	-0.9	94	-1.8	8	11	112	0.0	1003.5	0	0.000	0.0
20110216 07:35	-0.9	-0.9	-0.9	94	-1.7	5	8	135	0.0	1003.5	0	0.000	0.0
20110216 07:40	-0.8	-0.8	-0.8	94	-1.7	5	10	135	0.0	1003.4	0	0.000	0.0
20110216 07:45	-0.9	-0.9	-0.9	94	-1.7	5	10	112	0.0	1003.4	5	0.000	0.0
20110216 07:50	-0.8	-0.8	-0.8	94	-1.7	2	8	112	0.0	1003.2	6	0.000	0.0
20110216 07:55	-0.9	-0.9	-0.9	94	-1.7	5	10	90	0.0	1003.2	9	0.000	0.0
20110216 08:00	-0.9	-0.9	-0.9	93	-1.9	5	8	112	0.0	1003.3	10	0.000	0.0
20110216 08:05	-0.9	-0.9	-0.9	93	-1.9	5	10	135	0.0	1003.3	10	0.000	0.0
20110216 08:10	-0.9	-0.9	-0.9	94	-1.7	5	8	135	0.0	1003.3	11	0.000	0.0
20110216 08:15	-0.8	-0.8	-0.8	93	-1.8	3	8	135	0.0	1003.3	14	0.000	0.0
20110216 08:20	-0.8	-0.8	-0.8	93	-1.8	3	8	90	0.0	1003.3	18	0.000	0.0
20110216 08:25	-0.9	-0.9	-0.9	93	-1.9	3	8	112	0.0	1003.4	20	0.000	0.0
20110216 08:30	-0.9	-0.9	-0.9	93	-1.9	5	11	112	0.0	1003.4	20	0.000	0.0
20110216 08:35	-0.9	-0.9	-0.9	93	-1.9	3	6	112	0.0	1003.4	16	0.000	0.0
20110216 08:40	-0.8	-0.8	-0.8	93	-1.8	3	6	112	0.0	1003.4	15	0.000	0.0
20110216 08:45	-0.8	-0.8	-0.8	93	-1.8	3	8	112	0.0	1003.3	16	0.000	0.0
20110216 08:50	-0.8	-0.8	-0.8	93	-1.8	5	10	90	0.0	1003.3	15	0.000	0.0
20110216 08:55	-0.8	-3.1	-0.8	93	-1.8	6	11	135	0.0	1003.2	19	0.000	0.0
20110216 09:00	-0.8	-0.8	-0.8	93	-1.8	5	10	112	0.0	1003.1	26	0.000	0.0
20110216 09:05	-0.8	-0.8	-0.8	93	-1.8	5	11	90	0.0	1003.0	32	0.000	0.0
20110216 09:10	-0.8	-0.8	-0.8	94	-1.7	5	10	68	0.0	1003.0	32	0.000	0.0
20110216 09:15	-0.8	-3.1	-0.8	93	-1.8	6	13	112	0.0	1002.9	35	0.000	0.0
20110216 09:20	-0.9	-0.9	-0.9	93	-1.9	5	11	90	0.0	1002.9	38	0.000	0.0
20110216 09:25	-0.9	-0.9	-0.9	93	-1.9	5	11	135	0.0	1002.9	36	0.000	0.0
20110216 09:30	-0.8	-0.8	-0.8	93	-1.8	5	11	112	0.0	1003.0	37	0.000	0.0
20110216 09:35	-0.8	-3.1	-0.8	93	-1.8	6	13	112	0.0	1002.9	45	0.000	0.0
20110216 09:40	-0.8	-3.7	-0.8	93	-1.8	8	13	112	0.0	1003.0	47	0.000	0.0
20110216 09:45	-0.8	-0.8	-0.8	93	-1.8	5	11	135	0.0	1003.0	41	0.000	0.0
20110216 09:50	-0.9	-3.2	-0.9	93	-1.9	6	11	135	0.0	1003.1	47	0.000	0.0
20110216 09:55	-0.9	-0.9	-0.9	93	-1.9	5	11	135	0.0	1003.0	42	0.000	0.0
20110216 10:00	-0.8	-3.1	-0.8	93	-1.8	6	14	90	0.0	1002.9	42	0.025	0.0
20110216 10:05	-0.8	-0.8	-0.8	93	-1.8	5	10	135	0.0	1002.9	51	0.000	0.0
20110216 10:10	-0.8	-0.8	-0.8	93	-1.8	5	11	135	0.0	1002.9	56	0.000	0.0
20110216 10:15	-0.8	-0.8	-0.8	93	-1.8	3	10	135	0.0	1002.8	59	0.000	0.0
20110216 10:20	-0.8	-3.1	-0.8	93	-1.8	6	11	112	0.0	1002.8	65	0.000	0.0
20110216 10:25	-0.7	-0.7	-0.7	93	-1.7	5	10	112	0.0	1002.8	69	0.000	0.0
20110216 10:30	-0.8	-3.1	-0.8	93	-1.8	6	14	68	0.0	1002.7	67	0.000	0.0
20110216 10:35	-0.8	-3.7	-0.8	93	-1.8	8	18	68	0.0	1002.7	75	0.000	0.0
20110216 10:40	-0.8	-3.6	-0.8	93	-1.8	8	18	68	0.0	1002.7	80	0.000	0.0
20110216 10:45	-0.7	-3.0	-0.7	93	-1.7	6	14	90	0.0	1002.7	80	0.000	0.0
20110216 10:50	-0.8	-3.6	-0.8	93	-1.8	8	16	68	0.0	1002.6	76	0.000	0.0
20110216 10:55	-0.8	-3.1	-0.8	93	-1.8	6	14	68	0.0	1002.6	79	0.000	0.0
20110216 11:00	-0.8	-3.6	-0.8	93	-1.8	8	16	68	0.0	1002.6	91	0.025	0.0
20110216 11:05	-0.7	-3.0	-0.7	93	-1.7	6	14	90	0.0	1002.5	102	0.000	0.3
20110216 11:10	-0.7	-3.5	-0.7	93	-1.7	8	18	90	0.0	1002.5	88	0.000	0.2
20110216 11:15	-0.6	-3.5	-0.6	93	-1.6	8	19	112	0.0	1002.5	81	0.000	0.3
20110216 11:20	-0.6	-2.8	-0.6	93	-1.5	6	14	90	0.0	1002.4	66	0.000	0.0
20110216 11:25	-0.5	-2.8	-0.5	93	-1.5	6	14	90	0.0	1002.4	67	0.000	0.0
20110216 11:30	-0.4	-0.4	-0.4	93	-1.4	5	13	112	0.0	1002.4	68	0.000	0.0
20110216 11:35	-0.4	-2.7	-0.4	93	-1.4	6	11	90	0.0	1002.4	62	0.000	0.0
20110216 11:40	-0.4	-0.4	-0.4	93	-1.4	5	11	68	0.0	1002.3	67	0.000	0.0
20110216 11:45	-0.4	-0.4	-0.4	93	-1.4	3	11	135	0.0	1002.3	72	0.000	0.0
20110216 11:50	-0.3	-0.3	-0.3	93	-1.3	5	10	135	0.0	1002.2	70	0.000	0.0
20110216 11:55	-0.3	-2.6	-0.3	93	-1.3	6	11	68	0.0	1002.2	65	0.000	0.0
20110216 12:00	-0.3	-3.1	-0.3	93	-1.3	8	14	68	0.0	1002.1	64	0.025	0.0
20110216 12:05	-0.4	-2.6	-0.4	93	-1.4	6	11	90	0.0	1002.0	65	0.000	0.0
20110216 12:10	-0.4	-2.6	-0.4	93	-1.4	6	11	90	0.0	1001.9	70	0.000	0.0
20110216 12:15	-0.4	-2.6	-0.4	93	-1.4	6	11	90	0.0	1001.9	79	0.000	0.0
20110216 12:20	-0.4	-3.3	-0.4	93	-1.4	8	16	90	0.0	1001.9	87	0.000	0.2
20110216 12:25	-0.4	-2.7	-0.4	92	-1.6	6	11	68	0.0	1001.9	89	0.000	0.2
20110216 12:30	-0.4	-3.3	-0.4	93	-1.4	8	13	68	0.0	1001.9	90	0.000	0.5
20110216 12:35	-0.4	-3.3	-0.4	93	-1.4	8	14	90	0.0	1001.7	82	0.000	0.2
20110216 12:40	-0.4	-2.6	-0.4	93	-1.4	6	13	90	0.0	1001.7	77	0.000	0.1
20110216 12:45	-0.3	-3.1	-0.3	92	-1.5	8	13	90	0.0	1001.8	71	0.000	0.0
20110216 12:50	-0.3	-0.3	-0.3	92	-1.5	5	13	90	0.0	1001.6	69	0.000	0.0
20110216 12:55	-0.3	-2.5	-0.3	92	-1.4	6	14	68	0.0	1001.5	66	0.000	0.0
20110216 13:00	-0.2	-0.2	-0.2	92	-1.4	5	10	68	0.0	1001.5	66	0.025	0.0
20110216 13:05	-0.2	-2.4	-0.2	92	-1.4	6	16	68	0.0	1001.4	67	0.000	0.0
20110216 13:10	-0.3	-3.9	-0.3	92	-1.4	11	18	68	0.0	1001.4	64	0.000	0.0
20110216 13:15	-0.2	-3.0	-0.2	92	-1.4	8	16	68	0.0	1001.3	64	0.000	0.0
20110216 13:20	-0.3	-3.1	-0.3	92	-1.4	8	16	68	0.0	1001.2	62	0.000	0.0
20110216 13:25	-0.3	-3.1	-0.3	92	-1.5	8	16	68	0.0	1001.1	62	0.000	0.0
20110216 13:30	-0.3	-2.6	-0.3	92	-1.5	6	16	90	0.0	1001.0	67	0.000	0.0
20110216 13:35	-0.3	-3.1	-0.3	92	-1.5	8	16	68	0.0	1001.0	58	0.000	0.0
20110216 13:40	-0.3	-3.1	-0.3	92	-1.5	8	19	45	0.0	1001.0	57	0.000	0.0
20110216 13:45	-0.4	-4.1	-0.4	92	-1.6	11	18	68	0.0	1000.9	59	0.000	0.0
20110216 13:50	-0.4	-3.3	-0.4	92	-1.6	8	18	68	0.0	1000.9	57	0.000	0.0
20110216 13:55	-0.4	-3.2	-0.4	92	-1.5	8	14	68	0.0	1000.8	55	0.000	0.0
20110216 14:00	-0.4	-3.7	-0.4	92	-1.5	10	18	68	0.0	1000.8	57	0.025	0.0
20110216 14:05	-0.4	-3.2	-0.4	92	-1.5	8	16	68	0.0	1000.8	58	0.000	0.0
20110216 14:10	-0.4	-3.2	-0.4	92	-1.5	8	16	68	0.0	1000.8	53	0.000	0.0
20110216 14:15	-0.3	-2.6	-0.3	92	-1.5	6	16	90	0.0	1000.7	52	0.000	0.0
20110216 14:20	-0.3	-2.5	-0.3	92	-1.4	6	11	90	0.0	1000.5	54	0.000	0.0
20110216 14:25	-0.3	-3.1	-0.3	92	-1.4	8	16	68	0.0	1000.5	50	0.000	0.0
20110216 14:30	-0.3	-4.0	-0.3	92	-1.5	11	19	68	0.0	1000.4	48	0.000	0.0
20110216 14:35	-0.3	-3.1	-0.3	92	-1.4	8	18	68	0.0	1000.5	46	0.000	0.0
20110216 14:40	-0.3	-3.1	-0.3	92	-1.4	8	16	68	0.0	1000.5	43	0.000	0.0
20110216 14:45	-0.3	-3.1	-0.3	92	-1.5	8	16	68	0.0	1000.3	44	0.000	0.0
20110216 14:50	-0.3	-3.6	-0.3	92	-1.5	10	19	68	0.0	1000.4	40	0.000	0.0
20110216 14:55	-0.4	-3.7	-0.4	92	-1.5	10	16	68	0.0	1000.4	37	0.000	0.0
20110216 15:00	-0.4	-4.1	-0.4	92	-1.6	11	18	68	0.0	1000.3	35	0.025	0.0
20110216 15:05	-0.4	-3.7	-0.4	91	-1.7	10	16	68	0.0	1000.4	33	0.000	0.0
20110216 15:10	-0.6	-4.3	-0.6	91	-1.8	11	18	68	0.0	1000.4	33	0.000	0.0
20110216 15:15	-0.6	-3.9	-0.6	91	-1.8	10	19	68	0.0	1000.4	34	0.000	0.0
20110216 15:20	-0.6	-3.4	-0.6	91	-1.8	8	16	68	0.0	1000.4	33	0.000	0.0
20110216 15:25	-0.6	-3.4	-0.6	91	-1.8	8	16	68	0.0	1000.4	33	0.000	0.0
20110216 15:30	-0.7	-3.5	-0.7	91	-2.0	8	16	68	0.0	1000.4	32	0.000	0.0
20110216 15:35	-0.6	-2.9	-0.6	91	-1.9	6	11	90	0.0	1000.4	28	0.000	0.0
20110216 15:40	-0.6	-3.9	-0.6	91	-1.8	10	16	68	0.0	1000.4	26	0.000	0.0
20110216 15:45	-0.6	-3.9	-0.6	91	-1.9	10	16	68	0.0	1000.4	24	0.000	0.0
20110216 15:50	-0.6	-3.9	-0.6	91	-1.9	10	13	68	0.0	1000.4	25	0.000	0.0
20110216 15:55	-0.6	-2.8	-0.6	91	-1.8	6	14	68	0.0	1000.3	25	0.000	0.0
20110216 16:00	-0.6	-3.5	-0.6	91	-1.9	8	14	68	0.0	1000.3	22	0.025	0.0
20110216 16:05	-0.6	-3.5	-0.6	91	-1.9	8	13	68	0.0	1000.3	21	0.000	0.0
20110216 16:10	-0.6	-3.5	-0.6	91	-1.9	8	16	68	0.0	1000.2	22	0.000	0.0
20110216 16:15	-0.7	-3.5	-0.7	91	-2.0	8	16	68	0.0	1000.2	21	0.000	0.0
20110216 16:20	-0.7	-3.0	-0.7	91	-2.0	6	14	90	0.0	1000.2	22	0.000	0.0
20110216 16:25	-0.7	-4.1	-0.7	91	-2.0	10	16	68	0.0	1000.2	21	0.000	0.0
20110216 16:30	-0.8	-4.6	-0.8	91	-2.1	11	18	68	0.0	1000.1	16	0.000	0.0
20110216 16:35	-0.8	-4.6	-0.8	91	-2.1	11	18	68	0.0	1000.1	12	0.000	0.0
20110216 16:40	-0.8	-4.1	-0.8	91	-2.1	10	16	68	0.0	1000.0	12	0.000	0.0
20110216 16:45	-0.8	-4.1	-0.8	91	-2.1	10	16	68	0.0	1000.0	11	0.000	0.0
20110216 16:50	-0.8	-3.6	-0.8	91	-2.1	8	16	68	0.0	1000.0	10	0.000	0.0
20110216 16:55	-0.7	-3.0	-0.7	91	-2.0	6	11	68	0.0	1000.0	8	0.000	0.0
20110216 17:00	-0.7	-0.7	-0.7	91	-2.0	5	10	90	0.0	1000.0	7	0.000	0.0
20110216 17:05	-0.7	-0.7	-0.7	91	-2.0	5	11	45	0.0	1000.1	6	0.000	0.0
20110216 17:10	-0.8	-3.1	-0.8	91	-2.1	6	13	68	0.0	1000.0	4	0.000	0.0
20110216 17:15	-0.8	-0.8	-0.8	91	-2.1	5	10	90	0.0	1000.0	0	0.000	0.0
20110216 17:20	-0.8	-0.8	-0.8	91	-2.1	5	10	68	0.0	999.9	0	0.000	0.0
20110216 17:25	-0.7	-0.7	-0.7	91	-2.0	5	8	90	0.0	999.7	0	0.000	0.0
20110216 17:30	-0.7	-0.7	-0.7	91	-2.0	3	6	90	0.0	999.7	0	0.000	0.0
20110216 17:35	-0.7	-0.7	-0.7	91	-2.0	5	10	112	0.0	999.7	0	0.000	0.0
20110216 17:40	-0.7	-0.7	-0.7	91	-2.0	3	10	68	0.0	999.7	0	0.000	0.0
20110216 17:45	-0.7	-0.7	-0.7	91	-2.0	3	10	90	0.0	999.7	0	0.000	0.0
20110216 17:50	-0.7	-0.7	-0.7	91	-2.0	5	10	68	0.0	999.7	0	0.000	0.0
20110216 17:55	-0.7	-0.7	-0.7	91	-2.0	3	8	90	0.0	999.7	0	0.000	0.0
20110216 18:00	-0.6	-0.6	-0.6	91	-1.9	3	8	90	0.0	999.6	0	0.000	0.0
20110216 18:05	-0.6	-0.6	-0.6	91	-1.9	5	6	112	0.0	999.8	0	0.000	0.0
20110216 18:10	-0.6	-0.6	-0.6	91	-1.8	2	5	112	0.0	999.8	0	0.000	0.0
20110216 18:15	-0.6	-0.6	-0.6	91	-1.8	2	6	112	0.0	999.8	0	0.000	0.0
20110216 18:20	-0.5	-0.5	-0.5	91	-1.8	3	8	112	0.0	999.8	0	0.000	0.0
20110216 18:25	-0.5	-0.5	-0.5	91	-1.8	3	6	135	0.0	999.7	0	0.000	0.0
20110216 18:30	-0.5	-0.5	-0.5	91	-1.8	3	6	135	0.0	999.7	0	0.000	0.0
20110216 18:35	-0.5	-0.5	-0.5	91	-1.8	3	8	135	0.0	999.6	0	0.000	0.0
20110216 18:40	-0.5	-0.5	-0.5	91	-1.8	5	11	90	0.0	999.6	0	0.000	0.0
20110216 18:45	-0.5	-0.5	-0.5	90	-1.9	2	6	68	0.0	999.6	0	0.000	0.0
20110216 18:50	-0.5	-0.5	-0.5	90	-1.9	3	8	112	0.0	999.6	0	0.000	0.0
20110216 18:55	-0.5	-0.5	-0.5	90	-1.9	2	6	68	0.0	999.6	0	0.000	0.0
20110216 19:00	-0.5	-0.5	-0.5	90	-1.9	3	6	68	0.0	999.6	0	0.000	0.0
20110216 19:05	-0.5	-0.5	-0.5	90	-1.9	5	8	90	0.0	999.6	0	0.000	0.0
20110216 19:10	-0.4	-0.4	-0.4	90	-1.9	3	8	68	0.0	999.5	0	0.000	0.0
20110216 19:15	-0.5	-0.5	-0.5	90	-1.9	3	6	68	0.0	999.5	0	0.000	0.0
20110216 19:20	-0.5	-0.5	-0.5	90	-1.9	5	6	68	0.0	999.5	0	0.000	0.0
20110216 19:25	-0.5	-0.5	-0.5	90	-1.9	3	8	68	0.0	999.5	0	0.000	0.0
20110216 19:30	-0.5	-0.5	-0.5	90	-1.9	3	6	68	0.0	999.6	0	0.000	0.0
20110216 19:35	-0.5	-0.5	-0.5	90	-1.9	0	3	68	0.0	999.7	0	0.000	0.0
20110216 19:40	-0.5	-0.5	-0.5	90	-1.9	2	5	68	0.0	999.6	0	0.000	0.0
20110216 19:45	-0.5	-0.5	-0.5	90	-1.9	3	5	68	0.0	999.5	0	0.000	0.0
20110216 19:50	-0.5	-0.5	-0.5	90	-1.9	3	5	68	0.0	999.5	0	0.000	0.0
20110216 19:55	-0.5	-0.5	-0.5	90	-1.9	3	6	68	0.0	999.5	0	0.000	0.0
20110216 20:00	-0.6	-0.6	-0.6	90	-2.0	2	5	68	0.0	999.5	0	0.000	0.0
20110216 20:05	-0.6	-0.6	-0.6	90	-2.0	5	6	68	0.0	999.4	0	0.000	0.0
20110216 20:10	-0.5	-0.5	-0.5	90	-1.9	2	5	68	0.0	999.3	0	0.000	0.0
20110216 20:15	-0.5	-0.5	-0.5	90	-1.9	5	6	68	0.0	999.3	0	0.000	0.0
20110216 20:20	-0.6	-0.6	-0.6	90	-2.0	5	8	68	0.0	999.3	0	0.000	0.0
20110216 20:25	-0.6	-0.6	-0.6	90	-2.0	5	8	68	0.0	999.2	0	0.000	0.0
20110216 20:30	-0.6	-0.6	-0.6	90	-2.0	5	10	90	0.0	999.3	0	0.000	0.0
20110216 20:35	-0.6	-2.8	-0.6	90	-2.0	6	10	68	0.0	999.2	0	0.000	0.0
20110216 20:40	-0.6	-2.8	-0.6	90	-2.0	6	10	68	0.0	999.3	0	0.000	0.0
20110216 20:45	-0.6	-0.6	-0.6	90	-2.0	2	11	68	0.0	999.4	0	0.000	0.0
20110216 20:50	-0.6	-0.6	-0.6	90	-2.0	3	6	68	0.0	999.3	0	0.000	0.0
20110216 20:55	-0.6	-0.6	-0.6	90	-2.0	2	6	68	0.0	999.3	0	0.000	0.0
20110216 21:00	-0.6	-0.6	-0.6	90	-2.0	5	8	90	0.0	999.2	0	0.000	0.0
20110216 21:05	-0.6	-2.8	-0.6	90	-2.0	6	10	68	0.0	999.1	0	0.000	0.0
20110216 21:10	-0.6	-2.8	-0.6	90	-2.0	6	11	68	0.0	999.0	0	0.000	0.0
20110216 21:15	-0.6	-3.4	-0.6	90	-2.0	8	14	68	0.0	998.8	0	0.000	0.0
20110216 21:20	-0.6	-3.5	-0.6	90	-2.0	8	14	68	0.0	998.8	0	0.000	0.0
20110216 21:25	-0.6	-2.9	-0.6	90	-2.0	6	11	68	0.0	998.9	0	0.000	0.0
20110216 21:30	-0.6	-0.6	-0.6	90	-2.0	5	11	68	0.0	998.8	0	0.000	0.0
20110216 21:35	-0.6	-0.6	-0.6	90	-2.0	5	8	112	0.0	999.0	0	0.000	0.0
20110216 21:40	-0.6	-0.6	-0.6	90	-2.0	5	8	112	0.0	998.8	0	0.000	0.0
20110216 21:45	-0.6	-0.6	-0.6	90	-2.0	3	6	135	0.0	998.8	0	0.000	0.0
20110216 21:50	-0.6	-0.6	-0.6	90	-2.0	3	8	90	0.0	998.8	0	0.000	0.0
20110216 21:55	-0.6	-0.6	-0.6	90	-2.0	0	5	90	0.0	998.9	0	0.000	0.0
20110216 22:00	-0.6	-0.6	-0.6	90	-2.0	3	10	68	0.0	998.8	0	0.000	0.0
20110216 22:05	-0.6	-0.6	-0.6	90	-2.0	3	6	68	0.0	999.0	0	0.000	0.0
20110216 22:10	-0.6	-0.6	-0.6	90	-2.0	2	3	68	0.0	999.0	0	0.000	0.0
20110216 22:15	-0.6	-0.6	-0.6	90	-2.0	2	5	68	0.0	999.0	0	0.000	0.0
20110216 22:20	-0.5	-0.5	-0.5	90	-1.9	2	3	68	0.0	999.0	0	0.000	0.0
20110216 22:25	-0.5	-0.5	-0.5	90	-1.9	3	6	68	0.0	998.9	0	0.000	0.0
20110216 22:30	-0.6	-0.6	-0.6	90	-2.0	2	8	68	0.0	998.8	0	0.000	0.0
20110216 22:35	-0.6	-0.6	-0.6	90	-2.0	2	5	68	0.0	998.8	0	0.000	0.0
20110216 22:40	-0.6	-0.6	-0.6	90	-2.0	2	5	68	0.0	998.8	0	0.000	0.0
20110216 22:45	-0.5	-0.5	-0.5	90	-1.9	3	8	90	0.0	998.8	0	0.000	0.0
20110216 22:50	-0.5	-0.5	-0.5	90	-1.9	3	8	90	0.0	998.7	0	0.000	0.0
20110216 22:55	-0.6	-0.6	-0.6	90	-2.0	3	8	112	0.0	998.8	0	0.000	0.0
20110216 23:00	-0.6	-2.8	-0.6	90	-2.0	6	8	135	0.0	998.9	0	0.000	0.0
20110216 23:05	-0.6	-0.6	-0.6	90	-2.0	5	8	135	0.0	998.8	0	0.000	0.0
20110216 23:10	-0.6	-0.6	-0.6	90	-2.0	3	8	135	0.0	998.6	0	0.000	0.0
20110216 23:15	-0.6	-0.6	-0.6	90	-2.0	3	8	90	0.0	998.6	0	0.000	0.0
20110216 23:20	-0.6	-0.6	-0.6	90	-2.0	3	6	90	0.0	998.5	0	0.000	0.0
20110216 23:25	-0.6	-0.6	-0.6	90	-2.0	2	5	90	0.0	998.4	0	0.000	0.0
20110216 23:30	-0.6	-0.6	-0.6	90	-2.0	2	8	90	0.0	998.4	0	0.000	0.0
20110216 23:35	-0.6	-0.6	-0.6	90	-2.0	2	5	112	0.0	998.4	0	0.000	0.0
20110216 23:40	-0.6	-0.6	-0.6	90	-2.0	0	3	112	0.0	998.5	0	0.000	0.0
20110216 23:45	-0.6	-0.6	-0.6	90	-2.0	2	6	112	0.0	998.5	0	0.000	0.0
20110216 23:50	-0.6	-0.6	-0.6	90	-2.0	2	5	112	0.0	998.6	0	0.000	0.0
20110216 23:55	-0.6	-0.6	-0.6	90	-2.0	3	6	112	0.0	998.6	0	0.000	0.0



Please note the license to use and transfer of this data:
http://creativecommons.org/licenses/by-nc-sa/3.0/deed.en

Bitte beachten sie die Lizenz zur Verwertung und Weitergabe der Daten:
http://creativecommons.org/licenses/by-nc-sa/3.0/deed.de

zurück zur Übersicht der Archivdaten (Monats und Tagesdaten)

Cookies helfen bei der Bereitstellung von Inhalten. Durch die Nutzung dieser Seiten erklärst du dich damit einverstanden, dass Cookies auf deinem Rechner gespeichert werden. Weitere Information